Regional Weather Roundup
Issued by NWS Jackson, KY

Home | Current Version | Previous Version | Text Only | Print | Product List | Glossary Off
Versions: 1 2 3 4 5 6 7 8 9 10 11 12 13 14 15 16 17 18 19 20 21 22 23 24 25 26 27 28 29 30 31 32 33 34 35 36 37 38 39 40 41 42 43 44 45 46 47 48 49 50

000
ASUS43 KJKL 040910
RWRJKL

EAST KENTUCKY HOURLY WEATHER ROUNDUP
NATIONAL WEATHER SERVICE JACKSON KY
500 AM EDT FRI SEP 04 2015

NOTE: "FAIR" INDICATES FEW OR NO CLOUDS BELOW 12,000 FEET WITH
NO SIGNIFICANT WEATHER AND/OR OBSTRUCTIONS TO VISIBILITY.

* THESE REPORTS ARE NOT UNDER NWS QUALITY CONTROL AND MAY NOT
  REPORT WEATHER SUCH AS PRECIPITATION AND FOG.

KYZ079-080-083-085-087-088-110-112-115-119-120-041000
...EASTERN KENTUCKY...

CITY           SKY/WX    TMP DP  RH WIND       PRES   REMARKS
JACKSON        CLEAR     70  66  87 CALM      30.04R
LONDON         CLEAR     67  63  87 CALM      30.04R FOG
SOMERSET*      CLEAR     64  64 100 CALM      30.04R FOG
MONTICELLO*    FOG       63  63 100 CALM      30.05S VSB 1
MIDDLESBORO*   FOG       64  64 100 CALM      30.06R VSB 1/4
HARLAN APT*      N/A     64  64 100 MISG      30.06S
HAZARD APT*    SUNNY     66  66 100 CALM      30.04R FOG
BLACK MTN*       N/A     64  61  88 NW2         N/A
PIKEVILLE APT* CLEAR     68  66  94 CALM      30.05R FOG
BIG SANDY*     SUNNY     67  66  99 CALM      30.04R FOG
MOREHEAD APT*  CLOUDY    68  68 100 CALM      30.05R FOG
$$

KYZ035-036-041-042-044-050-067-078-099-041000
...CENTRAL KENTUCKY...

CITY           SKY/WX    TMP DP  RH WIND       PRES   REMARKS
MT STERLING*   CLEAR     64  64 100 CALM      30.04R FOG
FLEMING/MASON*   N/A     68  68 100 CALM      30.03R FOG
DANVILLE*      CLEAR     64  64 100 CALM      30.04R
RICHMOND*      CLEAR     66  64  94 CALM      30.03R
LEXINGTON      CLEAR     68  65  90 CALM      30.02R FOG
FRANKFORT      CLEAR     67  64  90 CALM      30.01R FOG
$$

KYZ091>093-OHZ055-061-077-WVZ005-015-034-035-042-041000
...SOUTHERN OHIO/WEST VIRGINIA...

CITY           SKY/WX    TMP DP  RH WIND       PRES   REMARKS
COVINGTON      PTCLDY    69  66  90 CALM      30.01R
COLUMBUS       MOCLDY    70  65  84 SE3       30.00R
DAYTON         PTCLDY    71  67  87 W6        30.00S
WILMINGTON     MOCLDY    69  66  90 CALM      30.00S FOG
HUNTINGTON     CLEAR     66  65  96 CALM      30.01R FOG
CHARLESTON     FOG       67  66  97 CALM      30.02R VSB 1/4
PINEVILLE*     FOG       66  66 100 MISG      30.11S VSB 1/4
BECKLEY        CLEAR     64  61  90 CALM      30.09S FOG
BLUEFIELD      CLEAR     66  62  87 W3        30.12R
$$

VAZ002-007-008-TNZ017-027-036-066-071-041000
...SOUTHWEST VIRGINIA/EAST TENNESSEE...

CITY           SKY/WX    TMP DP  RH WIND       PRES   REMARKS
WISE*          CLEAR     66  66 100 CALM      30.12R FOG
JONESVILLE*    SUNNY     63  63 100 CALM      30.07R FOG
ABINGDON*      CLEAR     66  64  92 E5        30.08R
BRISTOL        PTCLDY    63  62  97 NE3       30.05R FOG
KNOXVILLE      CLEAR     69  69 100 CALM      30.00R
OAK RIDGE      CLEAR     69  66  90 CALM      30.02R
CROSSVILLE     CLEAR     66  64  93 CALM      30.07R FOG
NASHVILLE      CLEAR     75  68  78 CALM      29.99S
$$

...KEY TO REMARKS...
VSB - VISIBILITY IN MILES
WCI - WIND CHILL INDEX
HX  - HEAT INDEX

$$



USA.gov is the U.S. government's official web portal to all federal, state and local government web resources and services.